Location: Home
(42.5358°N, 72.7383°W)
Time: 09:41:16
(UTC-05:00)

deb Explorer IX - Pass Details

Date: 01 December 2021
Orbit: 544 x 1082 km, 38.8° (Epoch: 19 January)

Event Time Altitude Azimuth Distance (km) Brightness Sun altitude
Rises 09:36:05 0° 202° (SSW) 3,006 ? 19.5°
Reaches altitude 10° 09:40:00 10° 172° (S) 1,978 ? 19.9°
Maximum altitude 09:41:41 12° 150° (SSE) 1,812 ? 20.0°
Drops below altitude 10° 09:43:19 10° 127° (SE) 1,899 ? 20.2°
Sets 09:46:52 0° 95° (E) 2,735 ? 20.5°
